This is the latest recevied weather packets stored in our database for station/object CE3SUR-16. If no packets are shown the sender has not sent any weather packets the latest 10 day(s).
| Time | Temp. | Humidity | Pressure | Rain* | Wind** | Luminosity | Snow |
|---|---|---|---|---|---|---|---|
| 1787407175 | 20° C | 75% | 955.9 hPa | - | - | - | - |
| 1787405375 | 18.33° C | 88% | 955.9 hPa | - | - | - | - |
| 1787403573 | 17.22° C | 92% | 955.7 hPa | - | - | - | - |
| 1787401773 | 19.44° C | 89% | 955.6 hPa | - | - | - | - |
| 1787399977 | 13.89° C | 99% | 955.4 hPa | - | - | - | - |
| 1787398177 | 13.89° C | 99% | 955.4 hPa | - | - | - | - |
| 1787396376 | 13.89° C | 99% | 955.2 hPa | - | - | - | - |
| 1787394576 | 13.89° C | 99% | 955.2 hPa | - | - | - | - |
| 1787392776 | 13.89° C | 99% | 955 hPa | - | - | - | - |
| 1787390976 | 13.89° C | 99% | 955 hPa | - | - | - | - |
| 1787389175 | 13.33° C | 99% | 955.2 hPa | - | - | - | - |
| 1787387375 | 13.89° C | 99% | 955.3 hPa | - | - | - | - |
| 1787385575 | 14.44° C | 99% | 955.5 hPa | - | - | - | - |
| 1787383775 | 15° C | 99% | 955.9 hPa | - | - | - | - |
| 1787381975 | 14.44° C | 99% | 956.2 hPa | - | - | - | - |
| 1787380174 | 15° C | 99% | 956.4 hPa | - | - | - | - |
| 1787378375 | 15.56° C | 99% | 956.4 hPa | - | - | - | - |
| 1787376575 | 16.11° C | 99% | 956.5 hPa | - | - | - | - |
| 1787374775 | 16.67° C | 99% | 957.1 hPa | - | - | - | - |
| 1787372975 | 16.11° C | 99% | 957.2 hPa | - | - | - | - |
| 1787371430 | 16.11° C | 99% | 957.1 hPa | - | - | - | - |
| 1787371175 | 16.11° C | 99% | 957.1 hPa | - | - | - | - |
| 1787369374 | 16.67° C | 99% | 957 hPa | - | - | - | - |
| 1787367574 | 16.67° C | 99% | 957.2 hPa | - | - | - | - |
| 1787365774 | 17.22° C | 99% | 957.2 hPa | - | - | - | - |
* Rain since midnight (hover to see other rain measurements)
** Current wind speed in m/s (hover to see current wind gust speed)